EHI
0 0 0 0 0 0 0 0 0 0 0 0 0 0 0 0 0 0 0 0 0 0 0 0 0 0 0 0 0 0 0 0 0 0 0 0 0 0 0 0 0 0 0 0
0 0 0 0 0 0 0 0 0 0 0 0 0 0 0 0 0 0 0 0 0 0 0 0 0 0 0 0 0 0 0 0 0 0 0 0 0 0 0 0 0 0 0 0
0 0 0 0 0 0 0 0 0 0 0 0 0 0 0 0 0 0 0 0 0 0 0 0 0 0 0 0 0 0 0 0 0 0 0 0 0 0 0 0 0 0 0 0
0 0 0 0 0 0 0 0 0 0 0 0 0 0 0 0 0 0 0 0 0 0 0 0 0 0 0 0 0 0 0 0 0 0 0 0 0 0 0 0 0 0 0 0
0 0 0 0 0 0 0 0 0 0 0 0 0 0 0 0 0 0 0 0 0 0 0 0 0 0 0 0 0 0 0 0 0 0 0 0 0 0 0 0 0 0 0 0
0 0 0 0 0 0 0 0 0 0 0 0 0 0 0 0 0 0 0 0 0 0 0 0 0 0 0 0 0 0 0 0 0 0 0 0 0 0 0 0 0 0 0 0
0 0 0 0 0 0 0 0 0 0 0 0 0 0 0 0 0 0 0 0 0 0 0 0 0 0 0 0 0 0 0 0 0 0 0 0 0 0 0 0 0 0 0 0
0 0 0 0 0 0 0 0 0 0 0 0 0 0 0 0 0 0 0 0 0 0 0 0 0 0 0 0 0 0 0 0 0 0 0 0 0 0 0 0 0 0 0 0
0 0 0 0 0 0 0 0 0 0 0 0 0 0 0 0 0 0 0 0 0 0 0 0 0 0 0 0 0 0 0 0 0 0 0 0 0 0 0 0 0 0 0 0
0 0 0 0 0 0 0 0 0 0 0 0 0 0 0 0 0 0 0 0 0 0 0 0 0 0 0 0 0 0 0 0 0 0 0 0 0 0 0 0 0 0 0 0
0 0 0 0 0 0 0 0 0 0 0 0 0 0 0 0 0 0 0 0 0 0 0 0 0 0 0 0 0 0 0 0 0 0 0 0 0 0 0 0 0 0 0 0
0 0 0 0 0 0 0 0 0 0 0 0 0 0 0 0 0 0 0 0 0 0 0 0 0 0 0 0 0 0 0 0 0 0 0 0 0 0 0 0 0 0 0 0
0 0 0 0 0 0 0 0 0 0 0 0 0 0 0 0 0 0 0 0 0 0 0 0 0 0 0 0 0 0 0 0 0 0 0 0 0 0 0 0 0 0 0 0
0 0 0 0 0 0 0 0 0 0 0 0 0 0 0 0 0 0 0 0 0 0 0 0 0 0 0 0 0 0 0 0 0 0 0 0 0 0 0 0 0 0 0 0
0 0 0 0 0 0 0 0 0 0 0 0 0 0 0 0 0 0 0 0 0 0 0 0 0 0 0 0 0 0 0 0 0 0 0 0 0 0 0 0 0 0 0 0
0 0 0 0 0 0 0 0 0 0 0 0 0 0 0 0 0 0 0 0 0 0 0 0 0 0 0 0 0 0 0 0 0 0 0 0 0 0 0 0 0 0 0 0
0 0 0 0 0 0 0 0 0 0 0 0 0 0 0 0 0 0 0 0 0 0 0 0 0 0 0 0 0 0 0 0 0 0 0 0 0 0 0 0 0 0 0 0
0 0 0 0 0 0 0 0 0 0 0 0 0 0 0 0 0 0 0 0 0 0 0 0 0 0 0 0 0 0 0 0 0 0 0 0 0 0 0 0 0 0 0 0
0 0 0 0 0 0 0 0 0 0 0 0 0 0 0 0 0 0 0 0 0 0 0 0 0 0 0 0 0 0 0 0 0 0 0 0 0 0 0 0 0 0 0 0
0 0 0 0 0 0 0 0 0 0 0 0 0 0 0 0 0 0 0 0 0 0 0 0 0 0 0 0 0 0 0 0 0 0 0 0 0 0 0 0 0 0 0 0
0 0 0 0 0 0 0 0 0 0 0 0 0 0 0 0 0 0 0 0 0 0 0 0 0 0 0 0 0 0 0 0 0 0 0 0 0 0 0 0 0 0 0 0
0 0 0 0 0 0 0 0 0 0 0 0 0 0 0 0 0 0 0 0 0 0 0 0 0 0 0 0 0 0 0 0 0 0 0 0 0 0 0 0 0 0 0 0
0 0 0 0 0 0 0 0 0 0 0 0 0 0 0 0 0 0 0 0 0 0 0 0 0 0 0 0 0 0 0 0 0 0 0 0 0 0 0 0 0 0 0 0
0 0 0 0 0 0 0 0 0 0 0 0 0 0 0 0 0 0 0 0 0 0 0 0 0 0 0 0 0 0 0 0 0 0 0 0 0 0 0 0 0 0 0 0
0 0 0 0 0 0 0 0 0 0 0 0 0 0 0 0 0 0 0 0 0 0 0 0 0 0 0 0 0 0 0 0 0 0 0 0 0 0 0 0 0 0 0 0
0 0 0 0 0 0 0 0 0 0 0 0 0 0 0 0 0 0 0 0 0 0 0 0 0 0 0 0 0 0 0 0 0 0 0 0 0 0 0 0 0 0 0 0
Wind_Speed
3 4 1 4 4 5 5 5 6 3 7 6 9 12 9 14 12 11 11 11 12 12 11 11 11 10 9 8 6 5 3 2 1 1 1 2 3 3 3 2 3 4 4 5
4 2 4 3 1 4 5 6 5 5 5 5 7 11 8 13 16 13 11 11 12 11 11 12 12 11 10 9 8 6 4 3 1 1 1 2 3 3 4 3 3 4 5 6
2 4 2 2 4 5 7 2 4 4 2 7 4 7 4 4 8 10 10 10 10 13 13 13 13 11 10 9 8 6 5 3 2 1 1 3 3 3 3 3 3 4 5 6
2 3 1 4 3 2 3 5 2 4 5 3 4 4 5 5 6 9 11 11 11 10 11 12 14 13 11 9 8 7 5 4 3 2 2 3 3 3 4 3 4 5 5 6
2 3 3 4 2 1 2 2 3 5 5 5 5 4 3 5 7 11 13 13 12 10 10 11 13 13 11 10 9 7 6 5 4 3 3 3 4 4 3 4 5 5 5 6
3 1 2 3 1 1 4 4 5 3 3 5 4 3 4 6 6 7 10 11 11 10 9 9 10 11 9 10 9 7 6 6 5 4 4 4 4 5 5 6 5 4 4 5
6 5 3 1 3 5 4 4 2 3 3 3 2 3 7 6 6 5 7 8 8 9 9 9 11 12 11 11 9 8 7 7 6 5 4 4 4 5 5 5 5 5 4 4
5 5 6 4 1 2 2 3 3 2 3 2 3 6 6 6 6 4 3 3 5 7 8 9 11 11 11 11 10 9 8 7 6 5 4 4 4 3 3 4 5 5 5 5
5 2 3 2 2 2 3 1 2 3 4 4 6 6 3 3 4 6 6 7 8 8 9 9 10 11 11 11 10 9 8 7 6 5 5 5 4 4 5 5 5 5 5 6
4 3 5 4 2 3 3 4 1 3 3 5 7 6 6 7 8 10 10 10 11 10 10 10 10 11 11 10 9 9 8 7 6 5 5 4 4 5 5 5 6 6 6 6
2 4 3 4 7 6 5 3 4 3 2 3 5 8 3 7 5 5 8 9 10 11 11 11 10 10 10 9 9 8 8 7 6 6 5 4 4 5 5 5 6 6 6 6
0 3 5 3 2 3 1 4 5 4 4 5 4 11 5 5 4 5 6 5 6 9 10 10 10 10 10 10 9 9 8 7 6 6 4 4 5 5 5 6 6 6 6 6
1 2 4 2 1 0 3 5 5 3 2 3 5 11 3 4 5 7 8 7 7 9 10 10 10 11 11 10 10 9 8 8 7 6 5 5 5 5 5 5 5 6 6 7
1 3 6 5 1 2 6 7 8 7 6 7 12 14 8 7 7 5 6 8 8 9 10 11 11 11 11 11 10 9 9 8 7 6 5 5 5 5 5 5 6 6 7 7
2 4 6 9 8 6 8 9 11 15 13 11 12 12 14 7 6 5 2 5 7 8 11 12 12 12 11 11 10 10 9 8 7 6 6 5 4 4 5 6 6 7 7 9
4 4 4 7 8 6 9 14 15 16 18 19 17 20 15 9 7 5 5 5 8 10 12 13 13 13 13 13 12 10 9 8 7 7 5 4 4 5 6 6 7 7 8 8
5 4 3 6 1 4 12 15 15 11 12 10 17 17 8 7 6 6 6 7 9 11 12 14 15 15 13 13 11 11 9 8 8 6 5 5 5 5 6 7 7 8 8 8
5 4 3 4 4 11 12 3 5 11 11 12 13 11 9 9 7 6 7 9 10 10 11 13 13 13 11 11 10 10 9 9 8 7 6 6 6 6 6 6 7 8 7 7
2 4 3 3 5 12 12 7 5 7 9 11 16 16 15 8 6 8 11 11 11 10 10 11 12 11 11 11 12 12 10 9 8 8 8 7 7 7 7 7 8 7 7 7
3 3 3 4 6 11 11 2 2 2 9 10 12 13 11 2 3 9 5 5 7 6 7 9 10 11 12 12 13 13 12 11 11 10 9 8 7 7 7 7 7 6 6 6
4 4 6 7 9 14 10 4 5 5 10 6 9 10 8 9 12 9 4 5 6 7 7 9 11 11 13 14 14 14 13 14 12 9 8 8 7 7 7 6 5 6 6 6
13 11 10 8 9 16 7 9 11 13 4 3 6 8 8 10 11 9 8 8 8 8 8 10 10 10 11 15 15 15 15 12 10 9 8 7 7 6 5 5 5 5 5 5
12 14 11 15 16 8 10 13 10 4 5 6 6 7 7 9 11 11 10 9 9 10 10 9 10 10 11 15 16 17 14 12 11 10 9 7 7 6 5 5 5 4 3 3
8 7 7 9 12 10 9 10 11 11 13 13 12 11 9 11 13 13 10 9 9 10 11 10 11 13 14 15 15 13 12 13 12 11 9 7 6 5 5 4 4 3 3 3
8 5 6 10 8 8 11 12 16 16 14 14 14 13 12 12 14 14 11 10 10 10 11 12 14 16 16 15 15 13 13 14 13 11 9 7 6 5 4 4 4 4 4 4
11 10 11 15 9 9 11 8 9 11 13 13 13 14 12 11 14 13 12 10 9 10 11 12 15 15 15 16 16 14 14 15 14 11 10 7 6 5 4 3 3 6 6 8
Wind_Direction
207 242 75 43 26 337 326 314 297 90 149 203 241 254 232 177 191 205 205 204 208 208 198 187 174 162 156 158 169 174 170 152 111 55 331 310 312 299 292 279 296 308 306 305
240 180 65 42 355 292 280 285 303 103 158 214 271 272 255 180 193 202 209 210 209 205 196 185 174 168 169 171 172 169 168 157 152 137 266 257 268 269 269 272 305 303 300 294
341 76 74 275 252 278 271 289 355 344 265 216 270 284 165 146 181 197 216 224 216 206 199 187 178 176 174 174 167 168 158 170 185 171 253 281 285 287 299 321 312 293 289 289
98 115 230 261 256 317 321 54 355 301 298 262 187 286 197 172 197 210 215 221 226 218 200 187 179 178 176 167 147 151 165 186 191 194 240 277 287 289 292 290 281 287 292 297
150 152 230 261 36 354 347 38 280 276 270 277 206 247 211 167 212 219 217 218 219 215 202 188 177 175 166 149 146 157 172 193 194 202 234 256 269 275 285 290 291 296 296 294
88 85 314 355 61 247 304 268 236 258 260 254 175 219 255 194 198 189 195 202 205 201 195 179 162 156 149 143 148 161 181 199 195 205 230 244 264 281 293 297 300 298 293 290
185 185 162 232 251 202 230 276 240 224 222 221 130 229 251 173 160 176 184 185 185 183 177 169 160 158 155 155 160 170 187 202 198 205 226 243 256 268 276 286 291 294 293 292
213 187 165 187 299 328 284 295 331 300 306 321 196 231 246 151 147 147 153 163 170 177 176 174 168 164 163 164 168 176 190 199 197 204 225 239 251 255 259 270 278 283 282 284
322 107 98 76 19 303 287 211 34 309 285 272 253 229 190 121 174 193 203 207 210 200 186 177 169 166 168 170 174 180 186 192 196 203 221 237 248 262 265 272 275 273 273 286
313 297 155 140 217 229 280 326 270 248 283 286 284 264 219 192 216 209 211 214 212 199 186 179 175 173 171 170 171 175 181 191 194 200 218 233 237 252 259 268 271 273 278 285
297 284 171 179 211 199 185 215 230 264 280 247 283 272 222 163 172 193 210 212 203 191 186 181 177 172 166 162 165 173 184 189 194 201 214 235 248 256 263 265 268 275 282 287
192 299 262 186 102 25 219 224 201 216 235 213 252 271 243 172 167 196 223 212 188 180 178 175 171 167 167 168 171 180 186 187 193 195 204 232 249 257 261 267 274 282 286 287
111 253 275 233 309 310 265 242 233 253 305 246 234 259 230 182 204 218 222 219 194 174 170 171 173 175 177 177 180 185 186 186 185 184 202 232 247 256 265 275 284 286 285 286
39 251 241 260 338 182 223 220 206 203 212 231 230 250 257 248 248 243 222 211 194 180 178 181 184 183 181 182 184 185 185 179 177 182 203 229 246 260 274 284 286 283 282 285
197 253 261 270 278 247 240 236 209 212 218 227 243 250 259 266 291 299 267 190 188 185 188 191 190 187 184 183 184 183 181 174 173 183 205 226 248 273 282 283 283 283 282 286
207 249 277 275 256 252 264 252 237 231 233 243 260 271 269 279 276 269 261 228 213 207 200 197 193 189 188 187 184 179 178 171 165 181 202 219 245 261 269 277 280 281 280 278
190 219 254 270 232 329 267 245 221 217 218 210 235 246 271 270 257 253 258 248 230 219 204 197 196 195 191 186 177 175 171 158 163 181 200 218 236 255 264 275 280 280 281 279
192 202 237 275 310 251 247 252 228 218 234 219 241 263 277 270 284 277 259 250 245 225 206 197 193 191 182 170 164 159 155 160 172 188 203 214 227 245 257 266 273 276 276 277
305 201 221 237 257 271 278 250 203 212 265 226 231 251 260 271 324 285 253 232 229 220 201 192 184 177 168 161 156 152 159 167 179 195 205 211 218 235 250 260 266 270 277 282
291 288 219 207 227 248 256 182 96 121 278 244 208 230 247 200 291 272 248 212 218 204 181 172 166 163 162 159 153 159 172 180 195 200 204 207 213 226 241 254 265 275 281 281
172 200 210 219 233 257 260 141 122 187 247 217 196 216 220 200 223 240 211 214 211 199 180 166 165 171 169 160 159 172 182 196 197 190 194 203 211 224 239 254 266 277 283 291
178 181 199 193 215 251 208 153 192 223 265 237 222 223 225 233 249 252 236 227 211 200 184 173 173 173 164 163 169 183 195 193 179 181 188 198 211 226 237 248 264 272 286 300
197 195 193 199 218 244 174 205 227 273 286 274 266 262 250 254 260 260 250 233 215 202 192 182 177 172 171 175 181 191 191 174 173 177 187 197 210 220 227 238 256 273 286 292
224 210 226 241 248 256 240 239 255 258 257 262 264 266 262 258 262 265 257 240 218 203 193 183 177 183 186 185 192 194 177 169 170 177 186 194 203 215 226 234 236 244 261 280
246 196 233 255 264 280 264 244 246 254 257 261 262 257 252 253 260 259 257 242 220 205 193 188 193 196 194 188 194 190 174 167 171 177 185 191 196 202 218 231 231 237 225 233
237 230 237 256 252 250 262 258 251 255 261 262 265 270 263 248 256 259 254 241 218 203 192 195 200 200 193 189 193 188 175 170 172 180 185 187 188 195 202 218 256 274 259 267